Simultaneous Nadir Overpasses (SNOs) Predictions

Prediction of SNOs between NOAA-19 and NPP Satellite Orbit:

Table of predicted SNOs for the next 14.0 days since TLE Epoch: 8/10/2012
Index Date (NOAA-19) Time (NOAA-19) NOAA-19 Lat,Lon Date (NPP) Time (NPP) NPP Lat,Lon Distance(km) Time Diff (sec)
1 08/21/2012 10:53:43 80.70, -31.47 08/21/2012 10:54:41 80.70, -31.56 1.64 58
2 08/21/2012 11:44:40 -80.69, 135.94 08/21/2012 11:45:25 -80.69, 135.97 0.64 45
3 08/21/2012 12:35:45 80.64, -55.92 08/21/2012 12:36:08 80.64, -55.95 0.63 23
4 08/21/2012 13:26:42 -80.63, 111.48 08/21/2012 13:26:52 -80.63, 111.57 1.66 10
5 08/21/2012 14:17:47 80.58, -80.38 08/21/2012 14:17:35 80.58, -80.36 0.38 12
6 08/21/2012 15:08:44 -80.57, 87.02 08/21/2012 15:08:19 -80.56, 87.16 2.69 25
7 08/21/2012 15:59:49
